15 daagse weersverwachting Porto (PT)

  • Overzicht
  • Per uur
  • 15 dagen
  • Extra
  • Vergelijk
  • Kaarten
  • Dagkaart
  • Meer »
  • Info
  • Statistieken
  • Directe link
    Temp 6h Neerslag Wind  
 06:44     20:22    Daglengte: 13:38 Morgen
01:00
10°
10.0 mm
4
07:00
25.3 mm
3
13:00
12°
26.9 mm
6
19:00
11°
28.7 mm
5
warningclass
 06:42     20:23    Daglengte: 13:41 Woensdag 24 Apr
01:00
10°
30.6 mm
4
07:00
10°
43.4 mm
7
13:00
14°
50.2 mm
9
19:00
12°
56.7 mm
7
warningclass
 06:41     20:24    Daglengte: 13:43 Donderdag 25 Apr
01:00
10°
58.4 mm
6
warningclass
07:00
10°
66.2 mm
7
warningclass
13:00
13°
92.9 mm
8
warningclass
19:00
12°
107.1 mm
6
Locatie info
Region: Porto
Latitude: 41.1495°N
Longitude: -8.6103°E
97 masl
Postcode: 4000-286
Temp/Neerslag /Baro Onweer/Dauwpunt
    Temp Baro 1h Neerslag Dauwpunt Wind UV Bewolking  
 06:44     20:22    Daglengte: 13:38 Morgen
00:00
11°
997.7 hPa 7.2 mm
48%
7.8°
5
Windvlaag: 2.3 km/h
68%
01:00
10°
997.4 hPa 2.8 mm
82%
6.6°
4
Windvlaag: 2.6 km/h
65%
02:00
10°
996.7 hPa 3.0 mm
82%
6.5°
4
Windvlaag: 3.2 km/h
50%
03:00
10°
996.2 hPa 3.1 mm
82%
6.5°
4
Windvlaag: 3.6 km/h
53%
04:00
10°
Voelt als: 7.6°
995.7 hPa 4.7 mm
82%
6.8°
4
Windvlaag: 2.4 km/h
50%
05:00
Voelt als: 7.1°
995.5 hPa 4.6 mm
82%
7.4°
4
Windvlaag: 3.2 km/h
64%
06:00
Voelt als: 6.7°
995.3 hPa 5.1 mm
82%
6.9°
5
Windvlaag: 3.1 km/h
66%
07:00
Voelt als: 7.1°
995.5 hPa 4.7 mm
82%
6.9°
3
Windvlaag: 1.6 km/h
78%
08:00
Voelt als: 8.1°
995.9 hPa 4.8 mm
82%
6.8°
3
Windvlaag: 2.1 km/h
78%
09:00
10°
996.6 hPa 5.4 mm
82%
6.3°
3
Windvlaag: 2.2 km/h
58%
10:00
11°
997.2 hPa 5.1 mm
82%
6.7°
4
Windvlaag: 1.5 km/h
71%
11:00
11°
998.0 hPa 4.0 mm
82%
6.8°
5
Windvlaag: 0.6 km/h
86%
12:00
11°
998.5 hPa 3.8 mm
82%
7.0°
6
Windvlaag: -2.1 km/h
81%
13:00
12°
999.0 hPa 3.9 mm
82%
7.8°
6
Windvlaag: -2.1 km/h
73%
14:00
11°
999.4 hPa 4.5 mm
82%
7.8°
6
Windvlaag: -1.2 km/h
60%
15:00
12°
999.5 hPa 3.8 mm
82%
7.1°
5
Windvlaag: -1.2 km/h
59%
16:00
12°
999.7 hPa 3.9 mm
82%
6.8°
5
Windvlaag: -0.7 km/h
40% warningclass
17:00
12°
999.7 hPa 5.9 mm
82%
7.3°
5
Windvlaag: 0.1 km/h
48%
18:00
12°
1000.0 hPa 5.8 mm
82%
6.9°
5
Windvlaag: 1 km/h
62% warningclass
19:00
11°
1000.3 hPa 4.7 mm
82%
7.0°
5
Windvlaag: 1.7 km/h
72% warningclass
20:00
10°
1000.5 hPa 4.5 mm
81%
6.8°
4
Windvlaag: 3 km/h
87%
21:00
10°
1001.0 hPa 5.6 mm
82%
6.9°
5
Windvlaag: 3.2 km/h
74%
22:00
10°
1001.4 hPa 4.8 mm
82%
7.3°
4
Windvlaag: 2.9 km/h
72%
23:00
10°
1001.4 hPa 5.7 mm
82%
7.5°
4
Windvlaag: 3.3 km/h
67%
 06:42     20:23    Daglengte: 13:41 Woensdag 24 Apr
00:00
10°
Voelt als: 8.0°
1001.3 hPa 5.0 mm
82%
7.6°
4
Windvlaag: 3.5 km/h
68%
01:00
10°
Voelt als: 7.8°
1001.2 hPa 5.0 mm
82%
7.9°
4
Windvlaag: 3.9 km/h
87%
02:00
10°
Voelt als: 7.2°
1000.8 hPa 5.7 mm
82%
7.6°
5
Windvlaag: 4.5 km/h
81%
03:00
10°
Voelt als: 6.8°
1000.2 hPa 5.9 mm
82%
7.7°
6
Windvlaag: 5.1 km/h
89%
04:00
Voelt als: 6.5°
999.4 hPa 6.6 mm
82%
7.8°
5
Windvlaag: 5.6 km/h
91%
05:00
Voelt als: 6.3°
998.2 hPa 7.0 mm
82%
7.9°
6
Windvlaag: 6 km/h
91%
06:00
Voelt als: 6.1°
997.4 hPa 9.7 mm
82%
7.6°
7
Windvlaag: 6.4 km/h
90%
07:00
10°
Voelt als: 6.8°
996.9 hPa 8.6 mm
82%
8.1°
7
Windvlaag: 7.1 km/h
85%
08:00
11°
997.0 hPa 8.1 mm
82%
8.6°
7
Windvlaag: 6.2 km/h
79%
09:00
12°
997.8 hPa 8.4 mm
82%
9.9°
8
Windvlaag: 4 km/h
80%
10:00
13°
998.6 hPa 8.2 mm
82%
9.9°
8
Windvlaag: 4.2 km/h
47%
11:00
13°
999.2 hPa 8.3 mm
82%
9.4°
8
Windvlaag: 4.5 km/h
32%
12:00
14°
999.8 hPa 8.5 mm
82%
9.0°
9
Windvlaag: 3.9 km/h
60%
13:00
14°
1000.3 hPa 8.7 mm
82%
9.5°
9
Windvlaag: 4.5 km/h
60%
14:00
14°
1000.5 hPa 8.7 mm
82%
9.6°
9
Windvlaag: 4.6 km/h
46%
15:00
14°
1000.4 hPa 8.9 mm
82%
10.0°
9
Windvlaag: 6 km/h
85%
16:00
13°
1000.0 hPa 9.5 mm
100%
9.4°
9
Windvlaag: 6.2 km/h
80%
17:00
13°
1000.1 hPa 9.9 mm
100%
10.0°
9
Windvlaag: 5.9 km/h
99% warningclass
18:00
12°
1000.5 hPa 9.6 mm
100%
9.2°
8
Windvlaag: 5.5 km/h
96% warningclass
19:00
12°
1000.8 hPa 10.1 mm
100%
9.1°
7
Windvlaag: 4 km/h
94% warningclass
20:00
11°
1001.5 hPa 10.3 mm
100%
8.9°
7
Windvlaag: -0.1 km/h
77% warningclass
21:00
11°
1002.6 hPa 9.5 mm
100%
8.2°
7
Windvlaag: 2.6 km/h
47% warningclass
22:00
11°
1003.9 hPa 9.7 mm
100%
7.1°
7
Windvlaag: 3 km/h
72% warningclass
23:00
11°
1004.5 hPa 9.3 mm
100%
7.7°
7
Windvlaag: 3.1 km/h
60% warningclass
 06:41     20:24    Daglengte: 13:43 Donderdag 25 Apr
00:00
11°
1004.7 hPa 9.4 mm
100%
8.1°
6
Windvlaag: 3 km/h
59%
01:00
10°
1005.1 hPa 10.1 mm
100%
7.1°
6
Windvlaag: 1.6 km/h
49% warningclass
02:00
10°
1005.5 hPa 10.6 mm
100%
8.2°
6
Windvlaag: 2.7 km/h
78% warningclass
03:00
10°
1005.7 hPa 11.0 mm
100%
7.0°
7
Windvlaag: 2.9 km/h
66% warningclass
04:00
10°
1006.0 hPa 11.0 mm
100%
7.4°
8
Windvlaag: 4.2 km/h
56% warningclass
05:00
10°
1006.4 hPa 10.7 mm
100%
7.8°
7
Windvlaag: 3.9 km/h
82% warningclass
06:00
10°
1006.9 hPa 11.6 mm
100%
7.8°
7
Windvlaag: 3.8 km/h
66% warningclass
07:00
10°
1007.7 hPa 11.2 mm
100%
6.5°
7
Windvlaag: 3.7 km/h
58% warningclass
08:00
10°
1008.9 hPa 15.0 mm
100%
6.7°
7
Windvlaag: 1.7 km/h
72% warningclass
09:00
11°
1009.8 hPa 15.1 mm
100%
6.6°
7
Windvlaag: 1.6 km/h
74% warningclass
10:00
12°
1010.6 hPa 15.6 mm
100%
7.7°
7
Windvlaag: 1.6 km/h
88% warningclass
11:00
12°
1011.4 hPa 15.6 mm
100%
6.8°
8
Windvlaag: 1.6 km/h
60% warningclass
12:00
12°
1012.3 hPa 16.0 mm
100%
8.2°
8
Windvlaag: 1.6 km/h
65% warningclass
13:00
13°
1012.8 hPa 15.7 mm
100%
7.7°
8
Windvlaag: 1.7 km/h
67% warningclass
14:00
13°
1013.2 hPa 16.0 mm
100%
8.5°
8
Windvlaag: 1.6 km/h
48% warningclass
15:00
13°
1014.1 hPa 16.1 mm
100%
8.5°
8
Windvlaag: 1.6 km/h
63% warningclass
16:00
12°
1014.7 hPa 16.9 mm
100%
8.2°
8
Windvlaag: 1.6 km/h
50% warningclass
17:00
12°
1015.4 hPa 16.3 mm
100%
8.1°
8
Windvlaag: 1.6 km/h
34%
18:00
12°
1016.2 hPa 15.8 mm
100%
7.7°
7
Windvlaag: 1.4 km/h
40%
19:00
12°
1017.0 hPa 26.0 mm
100%
7.5°
6
Windvlaag: 1.3 km/h
34%
20:00
11°
1017.9 hPa 26.1 mm
100%
7.4°
5
Windvlaag: 8.9 km/h
32%
21:00
11°
1018.9 hPa
98%
7.5°
5
Windvlaag: 8.8 km/h
31%
22:00
11°
1020.0 hPa
54%
7.5°
4
Windvlaag: 8.8 km/h
27%
23:00
11°
1020.8 hPa 25.8 mm
100%
7.3°
4
Windvlaag: 8.4 km/h
24%
Temp/Neerslag /Baro Onweer/Dauwpunt
    Temp Baro Neerslag Dauwpunt Wind Bewolking  
 06:44     20:22    Daglengte: 13:38 Morgen
01:00
10°
997.4 hPa 10.0 mm 6.6°
4
65%
04:00
10°
Voelt als: 7.6°
995.7 hPa 10.8 mm 6.8°
4
50%
07:00
Voelt als: 7.1°
995.5 hPa 14.5 mm 6.9°
3
78%
10:00
11°
997.2 hPa 15.3 mm 6.7°
4
71%
13:00
12°
999.0 hPa 11.7 mm 7.8°
6
73%
16:00
12°
999.7 hPa 12.2 mm 6.8°
5
40% warningclass
19:00
11°
1000.3 hPa 16.4 mm 7.0°
5
72% warningclass
22:00
10°
1001.4 hPa 14.9 mm 7.3°
4
72%
 06:42     20:23    Daglengte: 13:41 Woensdag 24 Apr
01:00
10°
Voelt als: 7.8°
1001.2 hPa 15.8 mm 7.9°
4
87%
04:00
Voelt als: 6.5°
999.4 hPa 18.1 mm 7.8°
5
91%
07:00
10°
Voelt als: 6.8°
996.9 hPa 25.3 mm 8.1°
7
85%
10:00
13°
998.6 hPa 24.7 mm 9.9°
8
47%
13:00
14°
1000.3 hPa 25.5 mm 9.5°
9
60%
16:00
13°
1000.0 hPa 27.1 mm 9.4°
9
80%
19:00
12°
1000.8 hPa 29.6 mm 9.1°
7
94% warningclass
22:00
11°
1003.9 hPa 29.5 mm 7.1°
7
72% warningclass
 06:41     20:24    Daglengte: 13:43 Donderdag 25 Apr
01:00
10°
1005.1 hPa 28.9 mm 7.1°
6
49% warningclass
04:00
10°
1006.0 hPa 32.7 mm 7.4°
8
56% warningclass
07:00
10°
1007.7 hPa 33.5 mm 6.5°
7
58% warningclass
10:00
12°
1010.6 hPa 45.6 mm 7.7°
7
88% warningclass
13:00
13°
1012.8 hPa 47.3 mm 7.7°
8
67% warningclass
16:00
12°
1014.7 hPa 49.0 mm 8.2°
8
50% warningclass
19:00
12°
1017.0 hPa 58.1 mm 7.5°
6
34%
22:00
11°
1020.0 hPa 26.1 mm 7.5°
4
27%
 06:39     20:26    Daglengte: 13:47 Vrijdag 26 Apr
01:00
10°
1022.1 hPa 77.6 mm 7.1°
3
27%
04:00
Voelt als: 7.5°
1024.8 hPa 0.7 mm 6.9°
2
46%
07:00
Voelt als: 7.3°
1025.5 hPa 0.9 mm 7.0°
1
53%
10:00
11°
1027.4 hPa 0.2 mm 7.1°
2
54%
13:00
14°
1029.2 hPa 0.2 mm 6.6°
3
55%
16:00
13°
1029.0 hPa   6.2°
3
48%
19:00
13°
1028.9 hPa   5.9°
4
41%
22:00
10°
1029.4 hPa   5.5°
3
20%
 06:38     20:27    Daglengte: 13:49 Zaterdag 27 Apr
01:00
Voelt als: 7.0°
1029.7 hPa   4.9°
2
0%
04:00
Voelt als: 6.3°
1029.0 hPa   4.8°
2
0%
07:00
Voelt als: 5.7°
1028.4 hPa   4.7°
3
0%
10:00
12°
1028.3 hPa   7.1°
3
14%
13:00
17°
1028.1 hPa   9.2°
4
27%
16:00
16°
1026.7 hPa   10.7°
5
19%
19:00
15°
1025.4 hPa   11.8°
6
11%
22:00
13°
1025.4 hPa   11.0°
4
45%
 06:37     20:28    Daglengte: 13:51 Zondag 28 Apr
01:00
12°
1025.2 hPa   10.0°
3
80%
04:00
11°
1023.8 hPa   9.2°
3
46%
07:00
10°
1022.6 hPa   8.5°
2
11%
10:00
16°
1021.9 hPa   11.5°
2
21%
13:00
21°
1021.2 hPa   13.9°
2
32%
16:00
20°
1019.8 hPa   13.5°
3
56%
19:00
18°
1018.5 hPa   12.9°
3
80%
22:00
15°
1018.3 hPa   12.0°
2
44%
 06:35     20:29    Daglengte: 13:54 Maandag 29 Apr
01:00
12°
1018.0 hPa   10.9°
2
7%
04:00
12°
1017.2 hPa   10.8°
1
49%
07:00
11°
1016.6 hPa   10.7°
1
92%
10:00
14°
1016.8 hPa   11.4°
2
47%
13:00
18°
1017.0 hPa   11.6°
4
2%
16:00
16°
1016.3 hPa   11.4°
3
1%
19:00
15°
1015.8 hPa   11.1°
3
0%
22:00
13°
1016.1 hPa   10.4°
2
14%
 06:34     20:30    Daglengte: 13:56 Dinsdag 30 Apr
01:00
10°
1016.2 hPa   9.5°
1
27%
07:00
11°
1015.3 hPa   9.9°
2
92%
13:00
15°
1015.7 hPa   10.0°
4
92%
19:00
14°
1015.3 hPa   7.4°
4
28%
 06:33     20:31    Daglengte: 13:58 Woensdag 01 Mei
01:00
10°
1016.5 hPa   8.3°
2
39%
07:00
10°
1016.5 hPa   8.3°
1
46%
13:00
15°
1018.4 hPa 0.4 mm 8.2°
5
65%
19:00
14°
1017.4 hPa 1.7 mm 7.4°
6
0%
 06:31     20:32    Daglengte: 14:01 Donderdag 02 Mei
01:00
Voelt als: 8.5°
1017.8 hPa   7.6°
2
0%
07:00
Voelt als: 6.4°
1016.3 hPa   6.8°
2
0%
13:00
21°
1015.8 hPa 0.2 mm 11.2°
2
4%
19:00
16°
1012.3 hPa 1.0 mm 11.5°
3
30%
 06:30     20:33    Daglengte: 14:03 Vrijdag 03 Mei
01:00
13°
1014.0 hPa 0.8 mm 10.5°
2
28%
07:00
13°
1013.5 hPa 1.1 mm 9.8°
2
34%
13:00
17°
1014.0 hPa 0.3 mm 10.1°
1
37%
19:00
16°
1013.2 hPa 0.5 mm 11.3°
3
31%
 06:29     20:34    Daglengte: 14:05 Zaterdag 04 Mei
01:00
13°
1014.9 hPa 0.3 mm 10.6°
1
34%
07:00
13°
1015.0 hPa 0.3 mm 10.2°
1
31%
13:00
17°
1016.1 hPa 0.4 mm 11.4°
2
35%
19:00
16°
1015.8 hPa 0.4 mm 12.1°
3
26%
 06:28     20:35    Daglengte: 14:07 Zondag 05 Mei
01:00
14°
1017.7 hPa 0.4 mm 11.6°
2
29%
07:00
13°
1017.8 hPa 0.7 mm 11.0°
2
35%
13:00
18°
1018.5 hPa 0.7 mm 11.5°
2
27%
19:00
17°
1017.5 hPa 0.6 mm 11.7°
3
27%
 06:26     20:36    Daglengte: 14:10 Maandag 06 Mei
01:00
14°
1019.1 hPa 0.2 mm 11.2°
2
27%
07:00
13°
1019.1 hPa 0.4 mm 10.4°
2
30%
13:00
18°
1019.3 hPa 0.3 mm 10.6°
1
28%
19:00
17°
1017.8 hPa 0.5 mm 11.6°
3
28%
 06:25     20:37    Daglengte: 14:12 Dinsdag 07 Mei
01:00
14°
1018.9 hPa 0.5 mm 10.9°
2
21%
07:00
13°
1018.3 hPa 1.3 mm 10.0°
2
24%
13:00
18°
1018.1 hPa 0.5 mm 10.8°
1
23%
19:00
17°
1016.3 hPa 0.3 mm 11.6°
3
20%
  CAPE Lifted Index Hail Supercell Tornado SRH 3km CL BTM PRES CL TOP PRES Swiss DWD icon SMHI TS
 06:44     20:22    Daglengte: 13:38 Morgen
00:00 134 J/kg 4.2 K 0 % 0 % 0 % 0 m²/s² 0 0 10.71 80
01:00 154 J/kg 4.0 K 0 % 0 % 0 % 0 m²/s² 0 0 9.64 80
02:00 174 J/kg 3.2 K 0 % 0 % 0 % 0 m²/s² 0 0 6.68 80
03:00 268 J/kg 1.5 K 0 % 0 % 0 % 0 m²/s² 0 0 3.24 80
04:00 345 J/kg -0.6 K 0 % 0 % 0 % 0 m²/s² 0 0 0.66 80
05:00 427 J/kg -1.4 K 0 % 0 % 0 % 0 m²/s² 0 0 -0.98 80
06:00 24 J/kg 0.3 K 0 % 0 % 0 % 0 m²/s² 0 0 1.59 80
07:00 113 J/kg -0.5 K 0 % 0 % 0 % 0 m²/s² 0 0 -0.02 80
08:00 335 J/kg -1.3 K 0 % 0 % 0 % 0 m²/s² 0 0 -0.55 80
09:00 368 J/kg -1.2 K 0 % 0 % 0 % 0 m²/s² 0 0 -0.39 80
10:00 313 J/kg -1.1 K 0 % 0 % 0 % 0 m²/s² 0 0 0.16 80
11:00 321 J/kg -1.2 K 0 % 0 % 0 % 0 m²/s² 0 0 0.33 80
12:00 347 J/kg -1.6 K 0 % 0 % 0 % 0 m²/s² 0 0 -0.01 80
13:00 343 J/kg -1.7 K 0 % 0 % 0 % 0 m²/s² 0 0 -0.02 80
14:00 376 J/kg -1.9 K 0 % 0 % 0 % 0 m²/s² 0 0 -0.22 80
15:00 437 J/kg -2.4 K 0 % 0 % 0 % 0 m²/s² 0 0 -0.72 80
16:00 455 J/kg -2.7 K 0 % 0 % 0 % 0 m²/s² 0 0 -1.17 95
17:00 424 J/kg -2.5 K 0 % 0 % 0 % 0 m²/s² 0 0 -1.6 80
18:00 361 J/kg -2.2 K 0 % 0 % 0 % 0 m²/s² 0 0 -0.88 95
19:00 389 J/kg -2.5 K 0 % 0 % 0 % 0 m²/s² 0 0 -1.42 95
20:00 411 J/kg -2.5 K 0 % 0 % 0 % 0 m²/s² 0 0 -1.48 80
21:00 390 J/kg -1.9 K 0 % 0 % 0 % 0 m²/s² 0 0 -0.97 80
22:00 357 J/kg -1.1 K 0 % 0 % 0 % 0 m²/s² 0 0 -0.29 80
23:00 336 J/kg -0.2 K 0 % 0 % 0 % 0 m²/s² 0 0 1.06 80
 06:42     20:23    Daglengte: 13:41 Woensdag 24 Apr
00:00 257 J/kg 1.3 K 0 % 0 % 0 % 0 m²/s² 0 0 1.99 80
01:00 174 J/kg 2.8 K 0 % 0 % 0 % 0 m²/s² 0 0 3.19 80
02:00 90 J/kg 4.7 K 0 % 0 % 0 % 0 m²/s² 0 0 5.15 80
03:00 66 J/kg 4.5 K 0 % 0 % 0 % 0 m²/s² 0 0 4.89 61
04:00 45 J/kg 4.8 K 0 % 0 % 0 % 0 m²/s² 0 0 5.07 63
05:00 0 J/kg 4.0 K 0 % 0 % 0 % 0 m²/s² 0 0 4.21 61
06:00 0 J/kg 0.8 K 0 % 0 % 0 % 0 m²/s² 0 0 0.89 61
07:00 316 J/kg -1.0 K 0 % 0 % 0 % 0 m²/s² 0 0 0.29 61
08:00 240 J/kg 0.8 K 0 % 0 % 0 % 0 m²/s² 0 0 5.18 80
09:00 196 J/kg 1.9 K 0 % 0 % 0 % 0 m²/s² 0 0 6.52 80
10:00 229 J/kg 1.8 K 0 % 0 % 0 % 0 m²/s² 0 0 5.01 80
11:00 212 J/kg 2.5 K 0 % 0 % 0 % 0 m²/s² 0 0 6.55 80
12:00 190 J/kg 3.0 K 0 % 0 % 0 % 0 m²/s² 0 0 6.75 80
13:00 218 J/kg 2.9 K 0 % 0 % 0 % 0 m²/s² 0 0 5.18 80
14:00 252 J/kg 2.6 K 0 % 0 % 0 % 0 m²/s² 0 0 3.62 2
15:00 261 J/kg 2.0 K 0 % 0 % 0 % 0 m²/s² 0 0 2.33 80
16:00 276 J/kg 1.2 K 0 % 0 % 0 % 0 m²/s² 0 0 1.86 80
17:00 301 J/kg 0.8 K 0 % 0 % 0 % 0 m²/s² 0 0 2.39 95
18:00 278 J/kg 2.3 K 0 % 0 % 0 % 0 m²/s² 0 0 3.17 95
19:00 288 J/kg 3.4 K 0 % 0 % 0 % 0 m²/s² 0 0 3.97 95
20:00 291 J/kg 4.1 K 0 % 0 % 0 % 0 m²/s² 0 0 4.55 95
21:00 284 J/kg 4.8 K 0 % 0 % 0 % 0 m²/s² 0 0 5.58 95
22:00 213 J/kg 5.7 K 0 % 0 % 0 % 0 m²/s² 0 0 6.66 95
23:00 236 J/kg 6.1 K 0 % 0 % 0 % 0 m²/s² 0 0 6.82 95
 06:41     20:24    Daglengte: 13:43 Donderdag 25 Apr
00:00 250 J/kg 5.8 K 0 % 0 % 0 % 0 m²/s² 0 0 6.58 80
01:00 227 J/kg 6.0 K 0 % 0 % 0 % 0 m²/s² 0 0 6.51 95
02:00 254 J/kg 6.2 K 0 % 0 % 0 % 0 m²/s² 0 0 7.34 95
03:00 278 J/kg 6.7 K 0 % 0 % 0 % 0 m²/s² 0 0 7.54 95
04:00 246 J/kg 6.9 K 0 % 0 % 0 % 0 m²/s² 0 0 7.65 95
05:00 231 J/kg 6.8 K 0 % 0 % 0 % 0 m²/s² 0 0 7.52 95
06:00 247 J/kg 5.9 K 0 % 0 % 0 % 0 m²/s² 0 0 6.5 95
07:00 273 J/kg 4.2 K 0 % 0 % 0 % 0 m²/s² 0 0 4.71 95
08:00 253 J/kg 3.3 K 0 % 0 % 0 % 0 m²/s² 0 0 3.78 95
09:00 306 J/kg 2.2 K 0 % 0 % 0 % 0 m²/s² 0 0 2.86 95
10:00 325 J/kg 1.1 K 0 % 0 % 0 % 0 m²/s² 0 0 2.18 95
11:00 323 J/kg 0.5 K 0 % 0 % 0 % 0 m²/s² 0 0 1.67 95
12:00 329 J/kg 0.0 K 0 % 0 % 0 % 0 m²/s² 0 0 0.81 95
13:00 333 J/kg -0.1 K 0 % 0 % 0 % 0 m²/s² 0 0 0.65 95
14:00 322 J/kg 0.3 K 0 % 0 % 0 % 0 m²/s² 0 0 1.23 95
15:00 287 J/kg 1.3 K 0 % 0 % 0 % 0 m²/s² 0 0 2.29 95
16:00 225 J/kg 2.6 K 0 % 0 % 0 % 0 m²/s² 0 0 3.74 95
17:00 196 J/kg 3.4 K 0 % 0 % 0 % 0 m²/s² 0 0 4.99 80
18:00 155 J/kg 4.4 K 0 % 0 % 0 % 0 m²/s² 0 0 6.53 80
19:00 145 J/kg 5.6 K 0 % 0 % 0 % 0 m²/s² 0 0 8.3 80
20:00 123 J/kg 6.3 K 0 % 0 % 0 % 0 m²/s² 0 0 9.84 80
21:00 116 J/kg 6.7 K 0 % 0 % 0 % 0 m²/s² 0 0 10.96 1
22:00 97 J/kg 7.3 K 0 % 0 % 0 % 0 m²/s² 0 0 12.43 1
23:00 98 J/kg 8.1 K 0 % 0 % 0 % 0 m²/s² 0 0 15.03 80
Temp Baro Wind Neerslag
  EWN Forecast EWN WRFDA DWD ICON FMI HIRLAM MET Norway GFS
 06:44     20:22    Daglengte: 13:38 Morgen
01:00 10.4° 997.4 hPa 4.3 m/s 10.0 mm 11.6° 996.1 hPa 5.8 m/s 31.6 mm 10.3° 998.0 hPa 3.0 m/s 10.3 mm 11.3° 997.2 hPa 6.8 m/s 0.0 mm 9.9° 997.8 hPa 4.2 m/s 3.2 mm 11.3° 996.9 hPa 5.7 m/s
04:00 9.7° 995.7 hPa 4.2 m/s 10.8 mm 11.1° 994.6 hPa 6.3 m/s 50.0 mm 9.6° 996.0 hPa 3.2 m/s 2.5 mm 9.9° 995.4 hPa 5.1 m/s 0.0 mm 8.7° 996.6 hPa 3.9 m/s 2.7 mm 10.3° 996.5 hPa 5.5 m/s
07:00 8.8° 995.5 hPa 3.1 m/s 14.5 mm 8.6° 995.2 hPa 1.3 m/s 56.4 mm 9.4° 995.9 hPa 2.6 m/s 3.1 mm 9.1° 994.9 hPa 4.2 m/s 0.0 mm 8.5° 996.3 hPa 3.3 m/s 4.9 mm 9.4° 997.2 hPa 6.1 m/s
10:00 10.6° 997.2 hPa 4.1 m/s 15.3 mm 11.4° 997.0 hPa 7.5 m/s 65.1 mm 9.6° 997.7 hPa 4.6 m/s 2.3 mm 11.2° 996.2 hPa 3.2 m/s 0.0 mm 10.0° 997.8 hPa 4.0 m/s 2.5 mm 10.4° 998.7 hPa 5.6 m/s
13:00 11.6° 999.0 hPa 5.6 m/s 11.7 mm 11.8° 998.6 hPa 6.9 m/s 70.1 mm 11.0° 1000.3 hPa 4.1 m/s 1.6 mm 12.2° 997.7 hPa 7.3 m/s 0.0 mm 11.2° 999.6 hPa 5.4 m/s 0.4 mm 12.4° 1000.2 hPa 6.4 m/s
16:00 11.8° 999.7 hPa 5.0 m/s 12.2 mm 12.5° 998.8 hPa 6.5 m/s 74.0 mm 11.5° 1000.5 hPa 3.9 m/s 1.8 mm 12.1° 998.3 hPa 6.4 m/s 0.0 mm 11.5° 1000.2 hPa 4.5 m/s 2.3 mm 13.1° 1000.2 hPa 5.7 m/s
19:00 11.1° 1000.3 hPa 4.9 m/s 16.4 mm 12.2° 999.1 hPa 7.5 m/s 79.1 mm 10.1° 1001.2 hPa 3.5 m/s 2.7 mm 12.0° 999.0 hPa 5.8 m/s 0.0 mm 9.8° 1000.7 hPa 5.0 m/s 3.4 mm 11.6° 1000.7 hPa 6.3 m/s
22:00 10.2° 1001.4 hPa 3.7 m/s 14.9 mm 11.7° 1000.2 hPa 6.5 m/s 85.0 mm 9.7° 1002.0 hPa 3.0 m/s 3.3 mm 11.2° 1000.8 hPa 4.3 m/s 0.0 mm 8.8° 1002.2 hPa 2.1 m/s 3.6 mm 10.6° 1002.3 hPa 5.3 m/s
 06:42     20:23    Daglengte: 13:41 Woensdag 24 Apr
01:00 9.9° 1001.2 hPa 4.3 m/s 15.8 mm 11.7° 1000.0 hPa 7.5 m/s 91.0 mm 9.2° 1000.9 hPa 3.9 m/s 3.7 mm 10.7° 1001.7 hPa 4.4 m/s 0.0 mm 8.6° 1002.0 hPa 2.9 m/s 3.9 mm 10.2° 1002.2 hPa 5.5 m/s
04:00 9.2° 999.4 hPa 5.4 m/s 18.1 mm 9.5° 997.9 hPa 5.9 m/s 96.6 mm 9.0° 998.4 hPa 4.4 m/s 5.6 mm 10.3° 1001.5 hPa 5.3 m/s 0.0 mm 8.4° 999.9 hPa 6.3 m/s 4.4 mm 9.0° 999.1 hPa 6.0 m/s
07:00 9.9° 996.9 hPa 7.0 m/s 25.3 mm 12.6° 993.7 hPa 7.5 m/s 135.1 mm 9.2° 994.6 hPa 3.0 m/s 3.8 mm 10.1° 1001.4 hPa 6.9 m/s 0.0 mm 9.1° 996.9 hPa 7.4 m/s 7.5 mm 10.7° 996.3 hPa 3.2 m/s
10:00 12.9° 998.6 hPa 8.0 m/s 24.7 mm 13.2° 997.2 hPa 7.4 m/s 159.5 mm 13.2° 997.0 hPa 7.8 m/s 2.5 mm 10.8° 1001.2 hPa 8.0 m/s 0.0 mm 13.2° 998.5 hPa 8.0 m/s 0.6 mm 13.6° 998.3 hPa 8.0 m/s
13:00 13.9° 1000.3 hPa 8.9 m/s 25.5 mm 14.2° 999.1 hPa 9.9 m/s 166.7 mm 14.2° 999.7 hPa 7.2 m/s 1.7 mm 14.4° 1000.8 hPa 8.8 m/s 0.0 mm 13.7° 1000.6 hPa 9.0 m/s 0.7 mm 15.2° 999.7 hPa 10.2 m/s
16:00 12.9° 1000.0 hPa 8.9 m/s 27.1 mm 13.9° 999.5 hPa 10.3 m/s 171.6 mm 13.3° 1000.0 hPa 6.6 m/s 1.0 mm 12.6° 1000.5 hPa 9.1 m/s 4.0 mm 13.9° 999.9 hPa 9.7 m/s
19:00 11.6° 1000.8 hPa 6.8 m/s 29.6 mm 12.4° 1000.9 hPa 8.4 m/s 178.9 mm 12.1° 1001.0 hPa 5.9 m/s 3.5 mm 11.5° 1001.2 hPa 7.2 m/s 4.2 mm 12.8° 1001.7 hPa 9.0 m/s
22:00 10.9° 1003.9 hPa 6.8 m/s 29.5 mm 11.9° 1004.1 hPa 7.4 m/s 185.1 mm 10.7° 1003.2 hPa 5.2 m/s 4.3 mm 10.7° 1004.4 hPa 7.1 m/s 2.2 mm 11.7° 1005.4 hPa 7.3 m/s
 06:41     20:24    Daglengte: 13:43 Donderdag 25 Apr
01:00 10.4° 1005.1 hPa 6.4 m/s 28.9 mm 11.4° 1004.7 hPa 6.4 m/s 189.2 mm 10.1° 1004.9 hPa 5.0 m/s 2.8 mm 10.2° 1006.3 hPa 7.0 m/s 3.1 mm 11.1° 1006.7 hPa 7.6 m/s
04:00 10.4° 1006.0 hPa 7.7 m/s 32.7 mm 11.7° 1005.3 hPa 7.8 m/s 204.6 mm 10.2° 1006.0 hPa 5.6 m/s 3.9 mm 9.5° 1006.9 hPa 8.7 m/s 4.8 mm 11.1° 1007.1 hPa 8.0 m/s
07:00 10.5° 1007.7 hPa 7.3 m/s 33.5 mm 11.6° 1006.2 hPa 8.0 m/s 211.0 mm 10.2° 1008.0 hPa 4.4 m/s 4.1 mm 10.0° 1008.2 hPa 7.4 m/s 4.2 mm 11.0° 1008.1 hPa 7.2 m/s
10:00 11.5° 1010.6 hPa 6.8 m/s 45.6 mm 12.4° 1009.0 hPa 8.1 m/s 217.3 mm 11.5° 1010.5 hPa 5.2 m/s 3.4 mm 11.4° 1011.0 hPa 6.9 m/s 2.0 mm 12.1° 1010.6 hPa 8.2 m/s
13:00 12.6° 1012.8 hPa 8.1 m/s 47.3 mm 12.6° 1011.8 hPa 8.6 m/s 223.8 mm 12.8° 1012.2 hPa 5.9 m/s 3.0 mm 12.6° 1013.4 hPa 8.5 m/s 3.4 mm 13.3° 1013.2 hPa 8.1 m/s
16:00 12.0° 1014.7 hPa 8.3 m/s 49.0 mm 13.5° 1013.6 hPa 8.6 m/s 228.6 mm 12.5° 1014.0 hPa 5.8 m/s 4.0 mm 11.4° 1015.5 hPa 8.8 m/s 4.3 mm 13.7° 1015.0 hPa 8.0 m/s
19:00 11.7° 1017.0 hPa 6.0 m/s 58.1 mm 13.5° 1016.0 hPa 7.1 m/s 230.9 mm 11.7° 1016.3 hPa 4.5 m/s 1.6 mm 11.3° 1017.8 hPa 6.1 m/s 2.3 mm 12.9° 1017.4 hPa 6.4 m/s
22:00 11.2° 1020.0 hPa 4.3 m/s 26.1 mm 12.8° 1019.4 hPa 6.3 m/s 230.9 mm 12.0° 1019.1 hPa 3.8 m/s 0.7 mm 10.2° 1020.6 hPa 4.2 m/s 11.7° 1021.5 hPa 5.0 m/s
 06:39     20:26    Daglengte: 13:47 Vrijdag 26 Apr
01:00 10.4° 1022.1 hPa 3.2 m/s 77.6 mm 12.5° 1020.9 hPa 5.1 m/s 231.0 mm 11.4° 1020.9 hPa 3.9 m/s 0.9 mm 9.1° 1023.4 hPa 2.2 m/s 11.4° 1023.1 hPa 3.6 m/s
04:00 8.3° 1024.8 hPa 1.7 m/s 0.7 mm 8.0° 1024.8 hPa 1.5 m/s 11.1° 1024.2 hPa 3.9 m/s 0.7 mm
07:00 7.8° 1025.5 hPa 1.3 m/s 0.9 mm 7.5° 1025.5 hPa 1.1 m/s 10.7° 1025.7 hPa 3.8 m/s 0.9 mm
10:00 10.7° 1027.4 hPa 2.1 m/s 0.2 mm 10.6° 1027.3 hPa 2.0 m/s 12.1° 1028.0 hPa 3.5 m/s 0.2 mm
13:00 13.7° 1029.2 hPa 3.0 m/s 0.2 mm 13.7° 1029.2 hPa 2.9 m/s 14.0° 1028.7 hPa 4.0 m/s 0.2 mm
16:00 13.3° 1029.0 hPa 3.4 m/s 0.0 mm 13.1° 1029.1 hPa 3.2 m/s 15.0° 1028.2 hPa 4.8 m/s 0.0 mm
19:00 12.6° 1028.9 hPa 3.8 m/s 0.0 mm 12.5° 1029.0 hPa 3.6 m/s 13.7° 1028.4 hPa 5.7 m/s 0.0 mm
22:00 10.4° 1029.4 hPa 3.0 m/s 0.0 mm 10.3° 1029.3 hPa 2.9 m/s 11.8° 1030.9 hPa 4.3 m/s 0.0 mm
 06:38     20:27    Daglengte: 13:49 Zaterdag 27 Apr
01:00 8.3° 1029.7 hPa 2.3 m/s 0.0 mm 8.1° 1029.6 hPa 2.2 m/s 10.7° 1031.2 hPa 3.7 m/s 0.0 mm
04:00 7.8° 1029.0 hPa 2.4 m/s 0.0 mm 7.6° 1028.9 hPa 2.4 m/s 10.2° 1030.6 hPa 3.2 m/s 0.0 mm
07:00 7.3° 1028.4 hPa 2.5 m/s 0.0 mm 7.1° 1028.2 hPa 2.5 m/s 10.0° 1030.4 hPa 2.7 m/s 0.0 mm
10:00 12.1° 1028.3 hPa 3.3 m/s 0.0 mm 11.9° 1028.1 hPa 3.4 m/s 14.7° 1030.2 hPa 2.4 m/s 0.0 mm
13:00 16.9° 1028.1 hPa 4.2 m/s 0.0 mm 16.6° 1028.0 hPa 4.3 m/s 20.0° 1029.0 hPa 2.7 m/s 0.0 mm
16:00 16.3° 1026.7 hPa 5.3 m/s 0.0 mm 15.9° 1026.7 hPa 5.3 m/s 21.2° 1026.5 hPa 5.0 m/s 0.0 mm
19:00 15.5° 1025.4 hPa 6.2 m/s 0.0 mm 15.1° 1025.4 hPa 6.3 m/s 19.6° 1025.5 hPa 5.1 m/s 0.0 mm
22:00 13.5° 1025.4 hPa 4.4 m/s 0.0 mm 13.1° 1025.2 hPa 4.5 m/s 16.9° 1026.8 hPa 3.3 m/s 0.0 mm
 06:37     20:28    Daglengte: 13:51 Zondag 28 Apr
01:00 11.6° 1025.2 hPa 2.7 m/s 0.0 mm 11.2° 1025.1 hPa 2.7 m/s 15.9° 1026.2 hPa 2.4 m/s 0.0 mm
04:00 10.8° 1023.8 hPa 2.5 m/s 0.0 mm 10.4° 1023.8 hPa 2.5 m/s 15.2° 1024.7 hPa 2.9 m/s 0.0 mm
07:00 10.1° 1022.6 hPa 2.4 m/s 0.0 mm 9.7° 1022.4 hPa 2.3 m/s 14.7° 1024.3 hPa 3.7 m/s 0.0 mm
10:00 15.6° 1021.9 hPa 2.4 m/s 0.0 mm 15.3° 1021.8 hPa 2.3 m/s 18.4° 1023.6 hPa 3.3 m/s 0.0 mm
13:00 21.2° 1021.2 hPa 2.2 m/s 0.0 mm 21.0° 1021.1 hPa 2.3 m/s 23.4° 1022.3 hPa 0.5 m/s 0.0 mm
16:00 19.5° 1019.8 hPa 2.9 m/s 0.0 mm 19.1° 1019.8 hPa 2.8 m/s 24.3° 1020.4 hPa 4.1 m/s 0.0 mm
19:00 17.5° 1018.5 hPa 3.3 m/s 0.0 mm 17.2° 1018.4 hPa 3.2 m/s 21.2° 1019.6 hPa 4.6 m/s 0.0 mm
22:00 14.8° 1018.3 hPa 2.5 m/s 0.0 mm 14.5° 1018.1 hPa 2.4 m/s 17.9° 1020.8 hPa 3.0 m/s 0.0 mm
 06:35     20:29    Daglengte: 13:54 Maandag 29 Apr
01:00 12.2° 1018.0 hPa 1.6 m/s 0.0 mm 11.8° 1017.8 hPa 1.6 m/s 16.8° 1020.2 hPa 1.6 m/s 0.0 mm
04:00 11.7° 1017.2 hPa 1.1 m/s 0.0 mm 11.3° 1017.0 hPa 1.1 m/s 15.8° 1019.0 hPa 1.9 m/s 0.0 mm
07:00 11.2° 1016.6 hPa 0.6 m/s 0.0 mm 10.8° 1016.3 hPa 0.5 m/s 15.2° 1019.3 hPa 1.5 m/s 0.0 mm
10:00 14.4° 1016.8 hPa 2.1 m/s 0.0 mm 14.0° 1016.5 hPa 2.0 m/s 19.4° 1019.6 hPa 2.2 m/s 0.0 mm
13:00 17.6° 1017.0 hPa 3.6 m/s 0.0 mm 17.2° 1016.8 hPa 3.6 m/s 22.2° 1019.2 hPa 4.2 m/s 0.0 mm
16:00 16.4° 1016.3 hPa 3.3 m/s 0.0 mm 15.9° 1016.2 hPa 3.1 m/s 22.3° 1017.8 hPa 5.7 m/s 0.0 mm
19:00 15.1° 1015.8 hPa 2.8 m/s 0.0 mm 14.6° 1015.6 hPa 2.6 m/s 20.2° 1017.5 hPa 4.8 m/s 0.0 mm
22:00 12.6° 1016.1 hPa 2.1 m/s 0.0 mm 12.1° 1015.8 hPa 2.0 m/s 17.5° 1018.9 hPa 3.2 m/s 0.0 mm
 06:34     20:30    Daglengte: 13:56 Dinsdag 30 Apr
01:00 10.2° 1016.2 hPa 1.5 m/s 0.0 mm 9.6° 1016.0 hPa 1.4 m/s 16.7° 1018.3 hPa 2.2 m/s 0.0 mm
07:00 11.2° 1015.3 hPa 2.3 m/s 0.0 mm 10.8° 1015.2 hPa 2.3 m/s 15.4° 1016.7 hPa 1.8 m/s 0.0 mm
13:00 14.5° 1015.7 hPa 3.9 m/s 0.0 mm 13.6° 1015.8 hPa 4.0 m/s 24.8° 1015.1 hPa 2.2 m/s 0.0 mm
19:00 13.7° 1015.3 hPa 4.3 m/s 0.0 mm 12.9° 1015.6 hPa 4.4 m/s 22.7° 1011.8 hPa 3.7 m/s 0.0 mm
 06:33     20:31    Daglengte: 13:58 Woensdag 01 Mei
01:00 10.2° 1016.5 hPa 1.8 m/s 0.0 mm 9.4° 1017.0 hPa 1.8 m/s 19.3° 1011.1 hPa 1.4 m/s 0.0 mm
07:00 10.2° 1016.5 hPa 1.5 m/s 0.0 mm 9.5° 1017.1 hPa 1.5 m/s 17.9° 1009.6 hPa 1.3 m/s 0.0 mm
13:00 15.2° 1018.4 hPa 4.5 m/s 0.3 mm 14.5° 1019.2 hPa 4.7 m/s 22.7° 1010.1 hPa 2.7 m/s 0.3 mm
19:00 13.5° 1017.4 hPa 6.0 m/s 1.1 mm 13.0° 1018.1 hPa 6.4 m/s 19.2° 1009.6 hPa 1.6 m/s 1.1 mm
 06:31     20:32    Daglengte: 14:01 Donderdag 02 Mei
01:00 9.4° 1017.8 hPa 2.0 m/s 0.0 mm 8.8° 1018.5 hPa 2.0 m/s 15.9° 1010.4 hPa 1.7 m/s 0.0 mm
07:00 8.0° 1016.3 hPa 2.5 m/s 0.0 mm 7.4° 1016.8 hPa 2.5 m/s 14.4° 1010.8 hPa 2.3 m/s 0.1 mm
13:00 20.7° 1015.8 hPa 1.7 m/s 0.1 mm 21.0° 1016.0 hPa 1.6 m/s 17.4° 1013.1 hPa 3.4 m/s 0.1 mm
19:00 16.5° 1012.3 hPa 3.5 m/s 1.0 mm
 06:30     20:33    Daglengte: 14:03 Vrijdag 03 Mei
01:00 13.5° 1014.0 hPa 1.7 m/s 0.8 mm
07:00 12.6° 1013.5 hPa 1.8 m/s 1.1 mm
13:00 16.9° 1014.0 hPa 0.9 m/s 0.3 mm
19:00 16.1° 1013.2 hPa 3.1 m/s 0.5 mm
 06:29     20:34    Daglengte: 14:05 Zaterdag 04 Mei
01:00 13.5° 1014.9 hPa 1.4 m/s 0.3 mm
07:00 12.8° 1015.0 hPa 1.0 m/s 0.3 mm
13:00 17.2° 1016.1 hPa 1.6 m/s 0.4 mm
19:00 16.3° 1015.8 hPa 3.3 m/s 0.4 mm
 06:28     20:35    Daglengte: 14:07 Zondag 05 Mei
01:00 13.6° 1017.7 hPa 1.7 m/s 0.4 mm
07:00 13.1° 1017.8 hPa 1.5 m/s 0.7 mm
13:00 17.6° 1018.5 hPa 1.6 m/s 0.7 mm
19:00 16.7° 1017.5 hPa 3.3 m/s 0.6 mm
 06:26     20:36    Daglengte: 14:10 Maandag 06 Mei
01:00 13.8° 1019.1 hPa 1.7 m/s 0.2 mm
07:00 13.2° 1019.1 hPa 1.9 m/s 0.4 mm
13:00 17.9° 1019.3 hPa 0.9 m/s 0.3 mm
19:00 17.0° 1017.8 hPa 3.3 m/s 0.5 mm
 06:25     20:37    Daglengte: 14:12 Dinsdag 07 Mei
01:00 14.1° 1018.9 hPa 1.9 m/s 0.5 mm
07:00 13.2° 1018.3 hPa 2.0 m/s 1.3 mm
13:00 17.9° 1018.1 hPa 1.2 m/s 0.5 mm
19:00 17.3° 1016.3 hPa 2.9 m/s 0.3 mm
FMI Hirlam - 7.5 km EWN WRFDA - 12 km DWD ICON - 7 km GFS - 25 km Basiskaart






























































Updatetijd (Europe/Amsterdam) Resolutie Lengte Stap
FMI Hirlam 19:00, 01:00, 07:00, 13:00 7.5 km 49h 1h
EWN WRFDA 21:15, 03:15, 09:15, 15:15 12 km 73h 1h
DWD ICON 23:45, 05:45, 11:45, 17:45 7 km 75h 1h
GFS 20:15, 02:15, 08:15, 14:15 25 km 237h 3h
30+ mm
25-30 mm
20-25 mm
15-20 mm
10-15 mm
6-10 mm
4-6 mm
2-4 mm
1-2 mm
0.5-1 mm
0.2-0.5 mm
0.1-0.2 mm
30+ mm
25-30 mm
20-25 mm
15-20 mm
10-15 mm
6-10 mm
4-6 mm
2-4 mm
1-2 mm
0.5-1 mm
0.2-0.5 mm
0.1-0.2 mm
Sneeuwval
Natte sneeuw
Hagel
Vorst
30+ mm
25-30 mm
20-25 mm
15-20 mm
10-15 mm
6-10 mm
4-6 mm
2-4 mm
1-2 mm
0.5-1 mm
0.2-0.5 mm
0.1-0.2 mm
Sneeuwval
Natte sneeuw
Hagel
Vorst
Onweer
50 mm
40 mm
30 mm
26 mm
22 mm
18 mm
14 mm
10 mm
9 mm
8 mm
7 mm
6 mm
5 mm
4.5 mm
4 mm
3.5 mm
3 mm
2.5 mm
2 mm
1.5 mm
1 mm
0.8 mm
0.6 mm
0.4 mm
0.2 mm
0.05 mm
35°
30°
25°
20°
15°
10°
-5°
-10°
-15°
-20°
-25°
-30°
-35°
120> km/h
105 km/h
90 km/h
75 km/h
60 km/h
50 km/h
40 km/h
30 km/h
20 km/h
10 km/h
0 km/h
2600 J/kg
2400 J/kg
2200 J/kg
2000 J/kg
1800 J/kg
1600 J/kg
1400 J/kg
1200 J/kg
1000 J/kg
800 J/kg
600 J/kg
400 J/kg
200 J/kg
70 dBZ
65 dBZ
60 dBZ
55 dBZ
50 dBZ
45 dBZ
40 dBZ
35 dBZ
30 dBZ
25 dBZ
20 dBZ
15 dBZ
10 dBZ
5 dBZ
-1 K
-2 K
-3 K
-4 K
-5 K
-6 K
-7 K
-8 K
-9 K
950 m²/s²
900 m²/s²
850 m²/s²
800 m²/s²
750 m²/s²
700 m²/s²
650 m²/s²
600 m²/s²
550 m²/s²
500 m²/s²
450 m²/s²
400 m²/s²
350 m²/s²
300 m²/s²
250 m²/s²
200 m²/s²
150 m²/s²
100 m²/s²
46 m/s
44 m/s
42 m/s
40 m/s
38 m/s
36 m/s
34 m/s
32 m/s
30 m/s
28 m/s
26 m/s
24 m/s
22 m/s
20 m/s
16 m/s
12 m/s
8 m/s
4 m/s
30 m/s
28 m/s
26 m/s
24 m/s
22 m/s
20 m/s
18 m/s
16 m/s
14 m/s
12 m/s
10 m/s
8 m/s
6 m/s
4 m/s
2 m/s
3.0
2.8
2.6
2.4
2.2
2.0
1.8
1.6
1.4
1.2
1.0
0.8
0.6
0.4
0.2
15
14
13
12
11
10
9
8
7
6
5
4
3
2
1
90%